Weather History for KVAY - February, 2013

Change the Weather History Date:

Saturday, February 9, 2013

  Actual Average (KTTN) Record (KTTN)
Temperature  
Mean Temperature 28 °F 33 °F  
Max Temperature 33 °F 41 °F 61 °F (1990)
Min Temperature 23 °F 25 °F -14 °F (1934)
Degree Days  
Heating Degree Days 36 32  
Month to date heating degree days 294  
Since 1 July heating degree days 3240  
Cooling Degree Days 0 0  
Month to date cooling degree days 0  
Year to date cooling degree days 0  
Moisture  
Dew Point 21 °F    
Average Humidity 74    
Maximum Humidity 96    
Minimum Humidity 40    
Precipitation  
Precipitation 0.12 in 0.08 in 1.17 in (1969)
Month to date precipitation 0.65  
Year to date precipitation 3.81  
Sea Level Pressure  
Sea Level Pressure 29.99 in    
Wind  
Wind Speed 11 mph (NW)    
Max Wind Speed 20 mph    
Max Gust Speed 32 mph    
Visibility 5 miles    
Events Fog , Snow    
T = Trace of Precipitation, MM = Missing Value Source: NWS Daily Summary

Daily Weather History Graph

Daily Weather History Graph

Search for Another Location

Airport or City:

Trip Planner

Search our weather history database for the weather conditions in past years. The results will help you decide how hot, cold, wet, or windy it might be!

Date:

Astronomy

Feb. 09, 2013 Rise Set
Actual Time 6:59 AM EST 5:28 PM EST
Civil Twilight 6:31 AM EST 5:56 PM EST
Nautical Twilight 5:59 AM EST 6:28 PM EST
Astronomical Twilight 5:27 AM EST 7:00 PM EST
Moon 6:09 AM EST (2/9) 5:08 PM EST (2/9)
Length of Visible Light 11h 25m
Length of Day
10h 29m
Waning Crescent, 0% of the Moon is Illuminated
Feb 9
Waning Crescent
Feb 10
New
Feb 17
First Quarter
Feb 25
Full
Mar 4
Last Quarter

Hourly Weather History & Observations

Time (EST) Temp. Windchill Dew Point Humidity Pressure Visibility Wind Dir Wind Speed Gust Speed Precip Events Conditions
12:19 AM 32.0 °F 22.5 °F 30.2 °F 93% 29.79 in 2.0 mi NNW 12.7 mph - 0.00 in Snow Light Snow
12:34 AM 32.0 °F 24.2 °F 30.2 °F 93% 29.79 in 1.8 mi NNW 9.2 mph 19.6 mph 0.00 in Snow Light Snow
12:54 AM 32.0 °F 25.6 °F 30.0 °F 92% 29.79 in 1.2 mi NW 6.9 mph - 0.00 in Snow Light Snow
1:04 AM 32.0 °F 24.8 °F 30.2 °F 93% 29.79 in 1.2 mi NNW 8.1 mph - 0.00 in Snow Light Snow
1:25 AM 32.0 °F 24.8 °F 30.2 °F 93% 29.80 in 0.8 mi NNW 8.1 mph - 0.00 in Snow Light Snow
1:32 AM 32.0 °F 27.5 °F 30.2 °F 93% 29.80 in 0.5 mi NW 4.6 mph - 0.00 in Fog , Snow Snow
1:54 AM 32.0 °F 27.5 °F 30.9 °F 96% 29.81 in 1.0 mi NW 4.6 mph - 0.01 in Snow Light Snow
2:02 AM 32.0 °F 27.5 °F 30.2 °F 93% 29.80 in 0.8 mi NW 4.6 mph - 0.00 in Snow Light Snow
2:21 AM 32.0 °F 24.2 °F 30.2 °F 93% 29.81 in 1.2 mi WNW 9.2 mph - 0.00 in Snow Light Snow
2:40 AM 30.2 °F 21.3 °F 28.4 °F 93% 29.82 in 0.8 mi WNW 10.4 mph 23.0 mph 0.00 in Snow Light Snow
2:54 AM 30.0 °F 20.0 °F 28.0 °F 92% 29.83 in 0.8 mi WNW 12.7 mph 24.2 mph 0.00 in Snow Light Snow
3:02 AM 30.2 °F 20.2 °F 26.6 °F 86% 29.84 in 1.0 mi WNW 12.7 mph 23.0 mph 0.00 in Snow Light Snow
3:07 AM 30.2 °F 20.2 °F 26.6 °F 86% 29.84 in 1.2 mi NW 12.7 mph 23.0 mph 0.00 in Snow Light Snow
3:20 AM 30.2 °F 20.2 °F 26.6 °F 86% 29.84 in 1.0 mi NW 12.7 mph 23.0 mph 0.00 in Snow Light Snow
3:31 AM 28.4 °F 20.4 °F 26.6 °F 93% 29.85 in 1.2 mi WNW 8.1 mph 19.6 mph 0.00 in Snow Light Snow
3:42 AM 28.4 °F 17.0 °F 26.6 °F 93% 29.86 in 1.0 mi WNW 15.0 mph 24.2 mph 0.00 in Snow Light Snow
3:50 AM 28.4 °F 17.5 °F 24.8 °F 86% 29.86 in 1.0 mi WNW 13.8 mph 27.6 mph 0.00 in Snow Light Snow
3:54 AM 28.0 °F 17.0 °F 25.0 °F 88% 29.87 in 1.0 mi WNW 13.8 mph 27.6 mph 0.00 in Snow Light Snow
3:58 AM 28.4 °F 17.0 °F 24.8 °F 86% 29.87 in 1.2 mi NW 15.0 mph 27.6 mph 0.00 in Snow Light Snow
4:23 AM 26.6 °F 16.8 °F 23.0 °F 86% 29.89 in 2.0 mi NW 10.4 mph 29.9 mph 0.00 in Snow Light Snow
4:38 AM 26.6 °F 14.7 °F 21.2 °F 80% 29.90 in 3.0 mi WNW 15.0 mph 25.3 mph 0.00 in Snow Light Snow
4:54 AM 27.0 °F 17.3 °F 21.9 °F 81% 29.91 in 3.0 mi WNW 10.4 mph 20.7 mph 0.00 in Snow Light Snow
5:44 AM 26.6 °F 16.2 °F 19.4 °F 74% 29.93 in 10.0 mi NW 11.5 mph 24.2 mph 0.00 in   Overcast
5:54 AM 26.1 °F 16.8 °F 19.9 °F 78% 29.94 in 10.0 mi WNW 9.2 mph 20.7 mph 0.00 in   Overcast
6:54 AM 25.0 °F 14.8 °F 19.0 °F 78% 29.99 in 8.0 mi WNW 10.4 mph 24.2 mph N/A   Overcast
7:54 AM 25.0 °F 13.6 °F 17.1 °F 72% 30.02 in 7.0 mi WNW 12.7 mph 25.3 mph 0.00 in   Overcast
8:54 AM 25.0 °F 14.2 °F 17.1 °F 72% 30.04 in 10.0 mi WNW 11.5 mph 19.6 mph N/A   Overcast
9:27 AM 26.6 °F 15.7 °F 17.6 °F 69% 30.05 in 3.0 mi NW 12.7 mph 32.2 mph 0.00 in   Partly Cloudy
9:54 AM 27.0 °F 15.6 °F 17.1 °F 66% 30.06 in 4.0 mi NW 13.8 mph 28.8 mph 0.00 in Snow Light Snow
10:06 AM 26.6 °F 14.7 °F 17.6 °F 69% 30.07 in 4.0 mi NW 15.0 mph 29.9 mph 0.00 in   Partly Cloudy
10:54 AM 28.9 °F 17.3 °F 17.1 °F 61% 30.09 in 8.0 mi NNW 16.1 mph 31.1 mph 0.00 in   Clear
11:54 AM 30.0 °F 17.5 °F 17.1 °F 59% 30.11 in 9.0 mi NW 19.6 mph 29.9 mph 0.08 in   Clear
12:54 PM 32.0 °F 20.5 °F 18.0 °F 56% 30.11 in 10.0 mi NW 18.4 mph 27.6 mph 0.03 in   Clear
1:54 PM 33.1 °F 23.4 °F 17.1 °F 52% 30.14 in 10.0 mi NW 13.8 mph 27.6 mph N/A   Clear
2:54 PM 33.1 °F 23.0 °F 15.1 °F 48% 30.14 in 10.0 mi NW 15.0 mph 26.5 mph N/A   Clear
3:54 PM 33.1 °F 23.0 °F 12.9 °F 43% 30.17 in 10.0 mi NNW 15.0 mph 28.8 mph N/A   Clear
4:54 PM 32.0 °F 20.1 °F 10.9 °F 42% 30.20 in 10.0 mi NNW 19.6 mph 27.6 mph N/A   Clear
5:54 PM 30.9 °F 20.7 °F 9.0 °F 40% 30.24 in 10.0 mi NNW 13.8 mph 25.3 mph N/A   Clear
6:54 PM 30.0 °F 23.2 °F 9.0 °F 41% 30.26 in 10.0 mi NW 6.9 mph 17.3 mph N/A   Clear
7:54 PM 28.0 °F 17.5 °F 8.1 °F 43% 30.29 in 10.0 mi NW 12.7 mph 18.4 mph N/A   Clear
8:54 PM 27.0 °F 18.7 °F 9.0 °F 47% 30.33 in 10.0 mi NW 8.1 mph - N/A   Clear
9:54 PM 25.0 °F 18.1 °F 9.0 °F 51% 30.35 in 10.0 mi NNW 5.8 mph - N/A   Clear
10:54 PM 24.1 °F 15.2 °F 8.1 °F 51% 30.36 in 10.0 mi NNW 8.1 mph - N/A   Clear
11:54 PM 23.0 °F 13.9 °F 8.1 °F 53% 30.38 in 10.0 mi NNW 8.1 mph - N/A   Clear